User: anonymous   Login
Location: Lomond
(50.3500°N, 112.6333°W)
Time: 09:37:44
(UTC+00:00)
Language:

IRIDIUM 33 DEB - Orbit

View from above orbital plane
View from above orbital plane
View from above satellite
View from above satellite

Ground track
Ground track

The orbit data is extracted from the following two-line orbital elements,

1 34702U 97051KZ  24146.47169140  .00020405  00000-0  25462-2 0  9999
2 34702  86.3029 166.1062 0032781  94.8121 265.6845 14.81913801809722
Epoch (UTC): 25 May 2024 11:19:14
Eccentricity: 0.0032781
inclination: 86.3029°
perigee height: 600 km
apogee height: 646 km
right ascension of ascending node: 166.1062°
argument of perigee: 94.8121°
revolutions per day: 14.81913801
mean anomaly at epoch: 265.6845°
orbit number at epoch: 80972

The dashed part of the orbit path shows where the satellite is in the earth's shadow,  

DLR